User: anonymous   Login
Location: ?????????
(38.5999°N, 22.7695°E)
Time: 13:37:36
(UTC+00:00)
Language:

Nadezhda 3 Rocket - Orbit

View from above orbital plane
View from above orbital plane
View from above satellite
View from above satellite

Ground track
Ground track

The orbit data is extracted from the following two-line orbital elements,

1 21153U 91019B   24202.93583892  .00000182  00000-0  17049-3 0  9994
2 21153  82.9236  75.2002 0030296 111.4471 260.9979 13.76193776674682
Epoch (UTC): 20 July 2024 22:27:36
Eccentricity: 0.0030296
inclination: 82.9236°
perigee height: 955 km
apogee height: 1000 km
right ascension of ascending node: 75.2002°
argument of perigee: 111.4471°
revolutions per day: 13.76193776
mean anomaly at epoch: 260.9979°
orbit number at epoch: 67468

The dashed part of the orbit path shows where the satellite is in the earth's shadow,  

DLR